Weather History for EHGR - September, 2013

Change the Weather History Date:

Friday, September 27, 2013

  Actual Average Record
Temperature  
Mean Temperature 50 °F -  
Max Temperature 62 °F 58 °F 71 °F (2011)
Min Temperature 39 °F 44 °F 37 °F (2010)
Degree Days  
Heating Degree Days 14    
Moisture  
Dew Point 44 °F    
Average Humidity 85    
Maximum Humidity 100    
Minimum Humidity 55    
Precipitation  
Precipitation 0.00 in - - ()
Sea Level Pressure  
Sea Level Pressure 30.04 in    
Wind  
Wind Speed 5 mph ()    
Max Wind Speed 12 mph    
Max Gust Speed -    
Visibility 5.6 miles    
Events      
Averages and records for this station are not official NWS values.
T = Trace of Precipitation, MM = Missing Value Source: Averaged Metar Reports

Daily Weather History Graph

Daily Weather History Graph

Search for Another Location

Airport or City:

Trip Planner

Search our weather history database for the weather conditions in past years. The results will help you decide how hot, cold, wet, or windy it might be!

Date:

Astronomy

Sep. 27, 2013 Rise Set
Actual Time 7:34 AM CEST 7:26 PM CEST
Civil Twilight 7:01 AM CEST 8:00 PM CEST
Nautical Twilight 6:22 AM CEST 8:39 PM CEST
Astronomical Twilight 5:41 AM CEST 9:19 PM CEST
Moon No Moon Rise 3:31 PM CEST (9/27)
Length of Visible Light 12h 58m
Length of Day
11h 52m
Waning Gibbous, 48% of the Moon is Illuminated
Sep 27
Waning Gibbous
Oct 5
New
Oct 12
First Quarter
Oct 19
Full
Oct 27
Last Quarter

Hourly Weather History & Observations

Time (CEST) Temp. Windchill Dew Point Humidity Pressure Visibility Wind Dir Wind Speed Gust Speed Precip Events Conditions
12:25 AM 44.6 °F 41.4 °F 42.8 °F 93% 30.06 in 6.2 mi NE 5.8 mph - N/A   Unknown
12:55 AM 42.8 °F 40.1 °F 41.0 °F 93% 30.06 in 6.2 mi NNE 4.6 mph - N/A   Unknown
1:25 AM 44.6 °F - 42.8 °F 93% 30.06 in 6.2 mi NNE 2.3 mph - N/A   Unknown
1:32 AM 44.6 °F 43.1 °F 42.8 °F 93% 30.06 in 4.3 mi NNE 3.5 mph - N/A   Mist
1:36 AM 42.8 °F 40.1 °F 41.0 °F 93% 30.06 in 5.6 mi NNE 4.6 mph - N/A   Mist
1:46 AM 42.8 °F 41.1 °F 41.0 °F 93% 30.06 in 6.2 mi NNE 3.5 mph - N/A   Partly Cloudy
1:55 AM 42.8 °F 40.1 °F 41.0 °F 93% 30.06 in 6.2 mi NNE 4.6 mph - N/A   Unknown
2:25 AM 42.8 °F 40.1 °F 41.0 °F 93% 30.06 in 5.6 mi NNE 4.6 mph - N/A   Partly Cloudy
2:30 AM 41.0 °F 38.0 °F 41.0 °F 100% 30.06 in 5.6 mi NNE 4.6 mph - N/A   Scattered Clouds
2:46 AM 42.8 °F 40.1 °F 41.0 °F 93% 30.06 in 6.2 mi NNE 4.6 mph - N/A   Overcast
2:55 AM 42.8 °F 41.1 °F 42.8 °F 100% 30.06 in 6.2 mi NNE 3.5 mph - N/A   Overcast
3:07 AM 42.8 °F 41.1 °F 42.8 °F 100% 30.06 in 6.2 mi NE 3.5 mph - N/A   Partly Cloudy
3:25 AM 42.8 °F 40.1 °F 41.0 °F 93% 30.06 in 6.2 mi NNE 4.6 mph - N/A   Scattered Clouds
3:49 AM 42.8 °F 41.1 °F 41.0 °F 93% 30.06 in 6.2 mi NNE 3.5 mph - N/A   Partly Cloudy
3:55 AM 42.8 °F 40.1 °F 41.0 °F 93% 30.06 in 6.2 mi NNE 4.6 mph - N/A   Partly Cloudy
4:25 AM 42.8 °F - 42.8 °F 100% 30.06 in 6.2 mi NE 2.3 mph - N/A   Unknown
4:34 AM 42.8 °F 41.1 °F 42.8 °F 100% 30.06 in 4.3 mi NNE 3.5 mph - N/A   Mist
4:38 AM 42.8 °F 41.1 °F 42.8 °F 100% 30.06 in 5.6 mi NNE 3.5 mph - N/A   Mist
4:51 AM 42.8 °F 40.1 °F 41.0 °F 93% 30.06 in 5.6 mi NE 4.6 mph - N/A   Mist
4:55 AM 42.8 °F 40.1 °F 41.0 °F 93% 30.06 in 5.6 mi NE 4.6 mph - N/A   Mist
5:05 AM 41.0 °F 37.1 °F 39.2 °F 93% 30.06 in 4.3 mi NNE 5.8 mph - N/A   Partly Cloudy
5:09 AM 41.0 °F 36.4 °F 39.2 °F 93% 30.06 in 5.0 mi NNE 6.9 mph - N/A   Partly Cloudy
5:25 AM 41.0 °F 38.0 °F 41.0 °F 100% 30.06 in 5.0 mi NNE 4.6 mph - N/A   Mist
5:45 AM 41.0 °F 38.0 °F 41.0 °F 100% 30.06 in 4.3 mi NE 4.6 mph - N/A   Mist
5:55 AM 41.0 °F 38.0 °F 41.0 °F 100% 30.06 in 4.3 mi NE 4.6 mph - N/A   Mist
6:04 AM 41.0 °F 38.0 °F 39.2 °F 93% 30.04 in 5.0 mi NE 4.6 mph - N/A   Mist
6:07 AM 39.2 °F 35.9 °F 39.2 °F 100% 30.04 in 4.3 mi NE 4.6 mph - N/A   Mist
6:14 AM 39.2 °F 35.9 °F 39.2 °F 100% 30.04 in 5.0 mi NE 4.6 mph - N/A   Mist
6:18 AM 41.0 °F - 41.0 °F 100% 30.04 in 4.3 mi NE 2.3 mph - N/A   Mist
6:25 AM 41.0 °F - 41.0 °F 100% 30.06 in 4.3 mi ENE 2.3 mph - N/A   Mist
6:55 AM 42.8 °F 41.1 °F 41.0 °F 93% 30.06 in 3.7 mi NE 3.5 mph - N/A   Partly Cloudy
7:25 AM 41.0 °F 38.0 °F 41.0 °F 100% 30.04 in 3.7 mi NE 4.6 mph - N/A   Mist
7:55 AM 39.2 °F 37.0 °F 39.2 °F 100% 30.06 in 3.7 mi NE 3.5 mph - N/A   Mist
8:25 AM 39.2 °F 35.0 °F 39.2 °F 100% 30.06 in 3.7 mi NE 5.8 mph - N/A   Mist
8:34 AM 42.8 °F 39.3 °F 41.0 °F 93% 30.06 in 5.0 mi NE 5.8 mph - N/A   Scattered Clouds
8:40 AM 42.8 °F 39.3 °F 42.8 °F 100% 30.06 in 4.3 mi ENE 5.8 mph - N/A   Partly Cloudy
8:41 AM 42.8 °F 40.1 °F 42.8 °F 100% 30.06 in 5.0 mi ENE 4.6 mph - N/A   Partly Cloudy
8:55 AM 44.6 °F 41.4 °F 42.8 °F 93% 30.06 in 5.0 mi ENE 5.8 mph - N/A   Partly Cloudy
9:25 AM 46.4 °F 43.5 °F 44.6 °F 93% 30.06 in 5.6 mi ENE 5.8 mph - N/A   Mist
9:55 AM 48.2 °F - 44.6 °F 87% 30.06 in 6.2 mi ENE 6.9 mph - N/A   Partly Cloudy
10:25 AM 50.0 °F - 46.4 °F 87% 30.06 in 6.2 mi ENE 5.8 mph - N/A   Scattered Clouds
10:55 AM 51.8 °F - 46.4 °F 82% 30.06 in 6.2 mi East 4.6 mph - N/A   Partly Cloudy
11:25 AM 53.6 °F - 48.2 °F 82% 30.06 in 6.2 mi East 4.6 mph - N/A   Scattered Clouds
11:55 AM 55.4 °F - 48.2 °F 77% 30.06 in 6.2 mi ENE 6.9 mph - N/A   Unknown
12:25 PM 57.2 °F - 48.2 °F 72% 30.04 in 6.2 mi ENE 8.1 mph - N/A   Unknown
12:55 PM 59.0 °F - 48.2 °F 67% 30.04 in 6.2 mi East 8.1 mph - N/A   Partly Cloudy
1:25 PM 59.0 °F - 50.0 °F 72% 30.04 in 6.2 mi East 8.1 mph - N/A   Partly Cloudy
1:36 PM 60.8 °F - 50.0 °F 68% 30.04 in 6.2 mi East 8.1 mph - N/A   Scattered Clouds
1:47 PM 60.8 °F - 48.2 °F 63% 30.04 in 6.2 mi East 8.1 mph - N/A   Partly Cloudy
1:55 PM 60.8 °F - 50.0 °F 68% 30.04 in 6.2 mi East 6.9 mph - N/A   Unknown
1:59 PM 60.8 °F - 48.2 °F 63% 30.04 in 6.2 mi East 6.9 mph - N/A   Scattered Clouds
2:25 PM 60.8 °F - 48.2 °F 63% 30.04 in 6.2 mi East 8.1 mph - N/A   Scattered Clouds
2:55 PM 60.8 °F - 48.2 °F 63% 30.04 in 6.2 mi East 6.9 mph - N/A   Unknown
3:25 PM 62.6 °F - 48.2 °F 59% 30.01 in 6.2 mi East 8.1 mph - N/A   Scattered Clouds
3:55 PM 62.6 °F - 48.2 °F 59% 30.01 in 6.2 mi East 6.9 mph - N/A   Partly Cloudy
4:25 PM 62.6 °F - 48.2 °F 59% 30.01 in 6.2 mi East 9.2 mph - N/A   Partly Cloudy
4:55 PM 62.6 °F - 46.4 °F 55% 30.01 in 6.2 mi ESE 6.9 mph - N/A   Partly Cloudy
5:25 PM 60.8 °F - 48.2 °F 63% 30.01 in 6.2 mi ENE 11.5 mph - N/A   Unknown
5:55 PM 60.8 °F - 48.2 °F 63% 30.01 in 6.2 mi East 9.2 mph - N/A   Unknown
6:25 PM 60.8 °F - 48.2 °F 63% 30.01 in 6.2 mi ENE 8.1 mph - N/A   Unknown
6:55 PM 59.0 °F - 48.2 °F 67% 30.01 in 6.2 mi ENE 6.9 mph - N/A   Unknown
7:25 PM 55.4 °F - 48.2 °F 77% 30.01 in 6.2 mi ENE 5.8 mph - N/A   Unknown
7:47 PM 55.4 °F - 46.4 °F 72% 30.01 in 4.3 mi ENE 6.9 mph - N/A   Haze
7:55 PM 53.6 °F - 46.4 °F 77% 30.01 in 6.2 mi ENE 5.8 mph - N/A   Unknown
8:08 PM 53.6 °F - 46.4 °F 77% 30.01 in 6.2 mi ENE 6.9 mph - N/A   Unknown
8:25 PM 53.6 °F - 46.4 °F 77% 30.01 in 6.2 mi ENE 6.9 mph - N/A   Partly Cloudy
8:55 PM 51.8 °F - 46.4 °F 82% 30.01 in 6.2 mi ENE 6.9 mph - N/A   Partly Cloudy
9:25 PM 50.0 °F - 44.6 °F 82% 30.01 in 6.2 mi ENE 5.8 mph - N/A   Scattered Clouds
9:55 PM 50.0 °F - 44.6 °F 82% 30.01 in 6.2 mi ENE 5.8 mph - N/A   Mostly Cloudy
10:25 PM 50.0 °F - 44.6 °F 82% 30.01 in 6.2 mi East 4.6 mph - N/A   Unknown
10:55 PM 48.2 °F - 42.8 °F 82% 29.98 in 6.2 mi East 5.8 mph - N/A   Unknown
11:25 PM 50.0 °F - 42.8 °F 76% 29.98 in 6.2 mi East 8.1 mph - N/A   Unknown
11:55 PM 50.0 °F - 41.0 °F 71% 29.98 in 6.2 mi East 5.8 mph - N/A   Unknown